Time,TemperatureF,DewpointF,PressureIn,WindDirection,WindDirectionDegrees,WindSpeedMPH,WindSpeedGustMPH,Humidity,HourlyPrecipIn,Conditions,Clouds,dailyrainin,SoftwareType,DateUTC
2013-07-24 00:02:00,84.0,57.0,29.94,SW,223,10.0,15.0,40,0.00,,,0.08,,2013-07-24 07:02:00,
2013-07-24 00:11:00,84.0,58.0,29.94,SSW,205,9.0,15.0,41,0.00,,,0.08,,2013-07-24 07:11:00,
2013-07-24 00:22:00,84.0,58.0,29.94,SSW,200,5.0,11.0,41,0.00,,,0.08,,2013-07-24 07:22:00,
2013-07-24 00:32:00,84.0,56.0,29.94,South,189,14.0,18.0,39,0.00,,,0.08,,2013-07-24 07:32:00,
2013-07-24 00:43:00,84.0,57.0,29.94,SSW,198,12.0,16.0,40,0.00,,,0.08,,2013-07-24 07:43:00,
2013-07-24 00:52:00,84.0,58.0,29.94,SSW,204,10.0,16.0,41,0.00,,,0.08,,2013-07-24 07:52:00,
2013-07-24 01:01:00,84.0,57.0,29.94,SSW,196,13.0,16.0,40,0.00,,,0.08,,2013-07-24 08:01:00,
2013-07-24 01:11:00,84.0,57.0,29.93,SSW,205,10.0,20.0,40,0.00,,,0.08,,2013-07-24 08:11:00,
2013-07-24 01:32:00,83.0,57.0,29.94,SW,225,12.0,19.0,41,0.00,,,0.08,,2013-07-24 08:32:00,
2013-07-24 01:42:00,83.0,58.0,29.94,SSW,200,9.0,18.0,42,0.00,,,0.08,,2013-07-24 08:42:00,
2013-07-24 01:52:00,82.0,57.0,29.94,SW,223,10.0,15.0,42,0.00,,,0.08,,2013-07-24 08:52:00,
2013-07-24 02:02:00,83.0,57.0,29.94,SW,230,14.0,17.0,41,0.00,,,0.08,,2013-07-24 09:02:00,
2013-07-24 02:11:00,83.0,58.0,29.94,SW,225,7.0,16.0,42,0.00,,,0.08,,2013-07-24 09:11:00,
2013-07-24 02:32:00,82.0,57.0,29.94,SW,219,11.0,16.0,42,0.00,,,0.08,,2013-07-24 09:32:00,
2013-07-24 02:43:00,82.0,58.0,29.93,SSW,207,11.0,14.0,44,0.00,,,0.08,,2013-07-24 09:43:00,
2013-07-24 02:53:00,82.0,57.0,29.93,SSW,212,9.0,15.0,43,0.00,,,0.08,,2013-07-24 09:53:00,
2013-07-24 03:01:00,82.0,58.0,29.96,SW,230,11.0,16.0,44,0.00,,,0.08,,2013-07-24 10:01:00,
2013-07-24 03:11:00,82.0,57.0,29.96,SSW,192,11.0,20.0,43,0.00,,,0.08,,2013-07-24 10:11:00,
2013-07-24 03:43:00,81.0,57.0,29.95,SSW,212,9.0,16.0,44,0.00,,,0.02,,2013-07-24 10:43:00,
2013-07-24 03:53:00,81.0,58.0,29.95,SW,225,11.0,15.0,45,0.00,,,0.02,,2013-07-24 10:53:00,
2013-07-24 04:01:00,81.0,57.0,29.96,WSW,237,9.0,16.0,44,0.00,,,0.02,,2013-07-24 11:01:00,
2013-07-24 04:11:00,81.0,57.0,29.95,SSW,211,12.0,16.0,44,0.00,,,0.02,,2013-07-24 11:11:00,
2013-07-24 04:22:00,81.0,58.0,29.96,SSW,209,12.0,16.0,45,0.00,,,0.02,,2013-07-24 11:22:00,
2013-07-24 04:32:00,80.0,57.0,29.95,SW,225,11.0,16.0,46,0.00,,,0.02,,2013-07-24 11:32:00,
2013-07-24 04:43:00,80.0,57.0,29.96,SW,227,11.0,17.0,45,0.00,,,0.01,,2013-07-24 11:43:00,
2013-07-24 04:52:00,80.0,57.0,29.96,SW,220,11.0,16.0,46,0.00,,,0.01,,2013-07-24 11:52:00,
2013-07-24 05:01:00,80.0,57.0,29.96,SW,223,12.0,19.0,46,0.00,,,0.01,,2013-07-24 12:01:00,
2013-07-24 05:42:00,79.0,57.0,29.96,SW,217,11.0,16.0,47,0.00,,,0.00,,2013-07-24 12:42:00,
2013-07-24 05:52:00,79.0,57.0,29.96,SSW,210,13.0,18.0,47,0.00,,,0.00,,2013-07-24 12:52:00,
2013-07-24 06:11:00,79.0,57.0,29.96,SSW,213,11.0,16.0,47,0.00,,,0.00,,2013-07-24 13:11:00,
2013-07-24 06:32:00,79.0,57.0,29.96,SW,214,13.0,18.0,47,0.00,,,0.00,,2013-07-24 13:32:00,
2013-07-24 06:43:00,80.0,58.0,29.96,SW,232,12.0,15.0,47,0.00,,,0.00,,2013-07-24 13:43:00,
2013-07-24 06:53:00,80.0,57.0,29.96,WSW,240,11.0,14.0,46,0.00,,,0.00,,2013-07-24 13:53:00,
2013-07-24 07:11:00,81.0,58.0,29.96,SW,214,10.0,13.0,46,0.00,,,0.00,,2013-07-24 14:11:00,
2013-07-24 07:43:00,82.0,58.0,29.97,WSW,241,9.0,14.0,44,0.00,,,0.00,,2013-07-24 14:43:00,
2013-07-24 07:55:00,82.0,59.0,29.97,SW,231,8.0,13.0,45,0.00,,,0.00,,2013-07-24 14:55:00,
2013-07-24 08:32:00,85.0,59.0,29.98,WSW,254,1.0,9.0,42,0.00,,,0.00,,2013-07-24 15:32:00,
2013-07-24 08:43:00,86.0,58.0,29.98,West,273,3.0,5.0,39,0.00,,,0.00,,2013-07-24 15:43:00,
2013-07-24 08:52:00,86.0,59.0,29.98,SW,214,7.0,9.0,40,0.00,,,0.00,,2013-07-24 15:52:00,
2013-07-24 09:11:00,87.0,59.0,29.98,WSW,241,5.0,8.0,39,0.00,,,0.00,,2013-07-24 16:11:00,
2013-07-24 09:22:00,87.0,58.0,29.98,WSW,240,0.0,7.0,38,0.00,,,0.00,,2013-07-24 16:22:00,
2013-07-24 09:32:00,88.0,58.0,29.98,SW,236,2.0,6.0,37,0.00,,,0.00,,2013-07-24 16:32:00,
2013-07-24 09:43:00,89.0,59.0,29.98,WSW,250,0.0,6.0,36,0.00,,,0.00,,2013-07-24 16:43:00,
2013-07-24 09:53:00,90.0,58.0,29.98,West,277,3.0,6.0,34,0.00,,,0.00,,2013-07-24 16:53:00,
2013-07-24 10:02:00,91.0,59.0,29.98,WSW,241,1.0,4.0,35,0.00,,,0.00,,2013-07-24 17:02:00,
2013-07-24 10:11:00,91.0,59.0,29.98,West,260,1.0,5.0,34,0.00,,,0.00,,2013-07-24 17:11:00,
2013-07-24 10:22:00,92.0,59.0,29.98,WNW,283,3.0,6.0,33,0.00,,,0.00,,2013-07-24 17:22:00,
2013-07-24 10:33:00,92.0,60.0,29.98,WNW,288,2.0,6.0,34,0.00,,,0.00,,2013-07-24 17:33:00,
2013-07-24 10:42:00,94.0,60.0,29.98,North,349,0.0,5.0,32,0.00,,,0.00,,2013-07-24 17:42:00,
2013-07-24 10:53:00,94.0,60.0,29.97,NW,307,2.0,6.0,32,0.00,,,0.00,,2013-07-24 17:53:00,
2013-07-24 11:01:00,95.0,60.0,29.97,NW,311,5.0,6.0,31,0.00,,,0.00,,2013-07-24 18:01:00,
2013-07-24 11:11:00,95.0,59.0,29.97,NNW,336,2.0,4.0,30,0.00,,,0.00,,2013-07-24 18:11:00,
2013-07-24 11:22:00,95.0,58.0,29.97,SSE,153,1.0,3.0,29,0.00,,,0.00,,2013-07-24 18:22:00,
2013-07-24 11:32:00,95.0,59.0,29.97,East,93,1.0,4.0,30,0.00,,,0.00,,2013-07-24 18:32:00,
2013-07-24 11:43:00,95.0,60.0,29.96,SSE,168,3.0,6.0,31,0.00,,,0.00,,2013-07-24 18:43:00,
2013-07-24 11:52:00,95.0,60.0,29.96,WSW,237,1.0,7.0,31,0.00,,,0.00,,2013-07-24 18:52:00,
2013-07-24 12:01:00,96.0,60.0,29.96,ENE,67,0.0,5.0,31,0.00,,,0.00,,2013-07-24 19:01:00,
2013-07-24 12:12:00,96.0,59.0,29.96,ESE,107,3.0,7.0,29,0.00,,,0.00,,2013-07-24 19:12:00,
2013-07-24 12:43:00,97.0,58.0,29.95,WSW,238,1.0,4.0,28,0.00,,,0.00,,2013-07-24 19:43:00,
2013-07-24 12:53:00,98.0,59.0,29.94,East,85,3.0,10.0,28,0.00,,,0.00,,2013-07-24 19:53:00,
2013-07-24 13:02:00,98.0,58.0,29.94,ESE,104,0.0,7.0,27,0.00,,,0.00,,2013-07-24 20:02:00,
2013-07-24 13:13:00,98.0,59.0,29.93,ESE,103,2.0,7.0,28,0.00,,,0.00,,2013-07-24 20:13:00,
2013-07-24 13:22:00,99.0,59.0,29.93,SSE,148,4.0,8.0,27,0.00,,,0.00,,2013-07-24 20:22:00,
2013-07-24 13:42:00,100.0,59.0,29.93,ESE,108,2.0,7.0,26,0.00,,,0.00,,2013-07-24 20:42:00,
2013-07-24 13:52:00,101.0,59.0,29.92,South,190,5.0,9.0,25,0.00,,,0.00,,2013-07-24 20:52:00,
2013-07-24 14:01:00,102.0,58.0,29.92,SSE,148,7.0,10.0,24,0.00,,,0.00,,2013-07-24 21:01:00,
2013-07-24 14:12:00,101.0,57.0,29.92,ESE,120,3.0,14.0,24,0.00,,,0.00,,2013-07-24 21:12:00,
2013-07-24 14:21:00,101.0,56.0,29.91,ESE,120,4.0,12.0,23,0.00,,,0.00,,2013-07-24 21:21:00,
2013-07-24 14:32:00,101.0,56.0,29.91,ESE,105,3.0,5.0,23,0.00,,,0.00,,2013-07-24 21:32:00,
2013-07-24 14:43:00,102.0,57.0,29.91,South,176,1.0,5.0,23,0.00,,,0.00,,2013-07-24 21:43:00,
2013-07-24 14:52:00,103.0,58.0,29.90,East,86,4.0,7.0,23,0.00,,,0.00,,2013-07-24 21:52:00,
2013-07-24 15:01:00,103.0,57.0,29.89,East,99,1.0,6.0,22,0.00,,,0.00,,2013-07-24 22:01:00,
2013-07-24 15:11:00,102.0,55.0,29.89,ESE,113,1.0,5.0,21,0.00,,,0.00,,2013-07-24 22:11:00,
2013-07-24 15:42:00,104.0,55.0,29.87,North,350,5.0,9.0,20,0.00,,,0.00,,2013-07-24 22:42:00,
2013-07-24 15:53:00,105.0,56.0,29.87,NNE,23,3.0,7.0,20,0.00,,,0.00,,2013-07-24 22:53:00,
2013-07-24 16:11:00,103.0,55.0,29.86,WSW,252,3.0,10.0,21,0.00,,,0.00,,2013-07-24 23:11:00,
2013-07-24 17:22:00,103.0,55.0,29.84,WSW,257,7.0,15.0,21,0.00,,,0.00,,2013-07-25 00:22:00,
2013-07-24 17:32:00,103.0,55.0,29.84,SSW,204,9.0,15.0,21,0.00,,,0.00,,2013-07-25 00:32:00,
2013-07-24 17:43:00,103.0,55.0,29.83,SSW,200,4.0,16.0,21,0.00,,,0.00,,2013-07-25 00:43:00,
2013-07-24 17:52:00,102.0,53.0,29.83,SSW,198,11.0,14.0,20,0.00,,,0.00,,2013-07-25 00:52:00,
2013-07-24 18:11:00,102.0,53.0,29.83,SW,217,6.0,16.0,20,0.00,,,0.00,,2013-07-25 01:11:00,
2013-07-24 18:21:00,101.0,52.0,29.83,SSW,211,14.0,21.0,20,0.00,,,0.00,,2013-07-25 01:21:00,
2013-07-24 18:32:00,101.0,51.0,29.83,SSW,202,12.0,17.0,19,0.00,,,0.00,,2013-07-25 01:32:00,
2013-07-24 18:42:00,101.0,51.0,29.83,SW,218,12.0,20.0,19,0.00,,,0.00,,2013-07-25 01:42:00,
2013-07-24 18:52:00,100.0,52.0,29.83,SSW,201,15.0,22.0,20,0.00,,,0.00,,2013-07-25 01:52:00,
2013-07-24 19:01:00,100.0,52.0,29.84,SSW,196,13.0,22.0,20,0.00,,,0.00,,2013-07-25 02:01:00,
2013-07-24 19:11:00,99.0,51.0,29.84,South,190,12.0,21.0,20,0.00,,,0.00,,2013-07-25 02:11:00,
2013-07-24 19:22:00,99.0,51.0,29.84,SW,221,13.0,20.0,20,0.00,,,0.00,,2013-07-25 02:22:00,
2013-07-24 19:33:00,98.0,50.0,29.84,SSW,206,12.0,18.0,20,0.00,,,0.00,,2013-07-25 02:33:00,
2013-07-24 19:43:00,97.0,49.0,29.84,SSW,213,14.0,17.0,20,0.00,,,0.00,,2013-07-25 02:43:00,
2013-07-24 19:52:00,97.0,52.0,29.84,West,263,8.0,16.0,22,0.00,,,0.00,,2013-07-25 02:52:00,
2013-07-24 20:22:00,94.0,52.0,29.85,SW,233,9.0,16.0,24,0.00,,,0.00,,2013-07-25 03:22:00,
2013-07-24 20:32:00,93.0,51.0,29.85,West,263,9.0,15.0,24,0.00,,,0.00,,2013-07-25 03:32:00,
2013-07-24 20:43:00,93.0,52.0,29.85,SW,223,12.0,17.0,25,0.00,,,0.00,,2013-07-25 03:43:00,
2013-07-24 20:52:00,92.0,51.0,29.85,WSW,243,15.0,19.0,25,0.00,,,0.00,,2013-07-25 03:52:00,
2013-07-24 21:02:00,92.0,52.0,29.86,SW,219,14.0,20.0,26,0.00,,,0.00,,2013-07-25 04:02:00,
2013-07-24 21:11:00,92.0,52.0,29.86,SW,225,13.0,19.0,26,0.00,,,0.00,,2013-07-25 04:11:00,
2013-07-24 21:43:00,90.0,51.0,29.87,SW,223,11.0,18.0,27,0.00,,,0.00,,2013-07-25 04:43:00,
2013-07-24 21:53:00,90.0,51.0,29.87,SW,230,11.0,18.0,27,0.00,,,0.00,,2013-07-25 04:53:00,
2013-07-24 22:02:00,90.0,52.0,29.88,SW,219,13.0,17.0,28,0.00,,,0.00,,2013-07-25 05:02:00,
2013-07-24 22:43:00,89.0,52.0,29.88,SW,218,13.0,18.0,28,0.00,,,0.00,,2013-07-25 05:43:00,
2013-07-24 22:52:00,89.0,52.0,29.88,SW,217,15.0,20.0,28,0.00,,,0.00,,2013-07-25 05:52:00,
2013-07-24 23:01:00,88.0,52.0,29.88,SW,218,14.0,19.0,29,0.00,,,0.00,,2013-07-25 06:01:00,
2013-07-24 23:11:00,88.0,52.0,29.88,SW,215,15.0,23.0,29,0.00,,,0.00,,2013-07-25 06:11:00,
2013-07-24 23:22:00,88.0,52.0,29.88,WSW,238,17.0,23.0,29,0.00,,,0.00,,2013-07-25 06:22:00,
2013-07-24 23:32:00,88.0,52.0,29.88,SW,225,14.0,25.0,29,0.00,,,0.00,,2013-07-25 06:32:00,
2013-07-24 23:42:00,88.0,53.0,29.88,SW,234,16.0,23.0,30,0.00,,,0.00,,2013-07-25 06:42:00,
2013-07-24 23:52:00,87.0,52.0,29.88,SW,223,15.0,23.0,30,0.00,,,0.00,,2013-07-25 06:52:00,